GFSNE_925_spd_267.txt.gz
Wind_Speed
14 15 17 17 20 22 25 24 14 8 7 8 6 10 20 29 26 26 27 27 28 23 28 32 34 37 43 44 45 41 41 38 36 35 33 31 29 27
16 17 17 19 21 18 18 20 24 8 4 13 8 11 19 25 27 24 24 26 24 25 27 30 31 34 40 44 47 43 45 42 40 38 36 34 32 31
18 18 18 19 19 20 20 19 20 18 8 12 16 19 23 24 26 26 26 26 25 26 28 30 30 32 37 42 43 45 48 45 42 40 38 37 36 34
19 19 20 20 21 21 20 19 18 20 18 10 13 20 25 26 26 29 32 30 29 26 29 30 31 30 32 39 42 44 49 48 46 43 40 37 35 33
16 20 19 21 21 21 20 20 20 18 15 11 10 16 15 17 23 25 28 28 29 28 29 33 32 33 32 36 41 44 46 47 47 44 41 38 36 34
15 16 20 21 19 20 18 20 19 17 16 13 10 14 14 19 16 17 16 21 25 26 28 26 30 33 35 38 43 49 49 49 50 46 42 36 34 33
19 19 18 18 18 16 16 18 19 16 14 13 12 11 12 14 15 15 17 19 22 23 25 26 29 32 34 40 43 46 49 48 49 42 36 31 29 28
18 18 18 19 20 20 14 12 13 16 15 11 9 8 11 13 16 17 16 13 3 9 12 15 18 22 25 29 33 38 48 49 41 35 29 26 25 25
15 18 18 17 18 20 20 16 15 11 12 13 12 11 12 16 19 16 16 15 7 18 10 6 6 9 12 17 19 24 31 26 23 21 21 22 23 26
16 18 18 19 18 20 20 18 17 15 15 13 14 16 16 17 16 18 19 20 21 13 10 1 4 1 7 9 12 17 16 14 14 15 17 20 23 28
16 18 22 23 22 21 21 22 22 18 16 15 12 13 14 13 13 15 14 13 4 5 7 3 2 3 3 6 8 10 11 10 12 15 23 26 29 32
18 20 21 21 22 21 21 21 21 22 22 22 18 14 14 13 11 10 10 9 4 3 6 5 3 0 2 3 4 6 9 14 17 20 21 23 23 25
20 24 26 24 23 22 20 20 20 21 21 22 21 19 14 13 11 10 9 8 6 4 7 4 2 1 1 3 3 6 9 10 12 15 17 18 19 22
24 25 26 27 25 23 22 20 19 19 18 20 19 17 16 14 12 11 10 8 6 6 5 4 3 1 1 2 3 4 5 11 13 15 15 18 19 20
25 26 25 27 27 25 23 21 20 19 18 17 15 17 17 15 13 11 9 6 4 4 3 2 1 1 1 2 3 7 9 6 16 14 14 17 20 21
28 28 24 25 25 26 26 24 22 20 18 18 17 18 16 13 12 9 9 9 10 11 9 7 5 4 4 6 11 13 14 7 9 11 14 14 14 15
28 26 24 23 22 22 23 24 25 22 19 18 17 17 16 14 13 10 9 10 8 6 6 5 4 5 6 7 8 12 14 14 14 11 11 10 11 12
22 20 21 23 23 24 24 25 25 21 20 17 17 16 14 12 12 11 10 11 9 10 8 4 2 2 3 4 5 10 8 9 8 4 4 4 9 10
22 22 23 25 26 26 27 26 25 22 24 19 17 16 15 14 12 11 10 11 10 10 8 6 6 4 3 3 2 6 6 6 1 6 8 9 7 11
24 24 24 27 28 28 30 30 26 24 20 18 16 15 16 14 12 11 11 10 9 8 7 6 8 9 3 2 0 6 4 4 5 13 15 22 24 25
26 26 27 28 28 30 31 32 33 21 18 15 15 15 13 12 13 12 12 11 9 9 6 8 10 8 8 4 3 4 12 2 12 12 14 15 10 15
26 27 28 28 29 29 31 31 31 28 23 18 17 16 13 12 12 11 10 9 10 8 7 5 5 6 6 2 3 5 11 18 15 11 10 8 2 3
28 28 29 29 30 29 30 30 29 27 26 25 24 21 18 13 9 9 8 9 8 8 7 6 6 4 5 10 10 9 15 15 20 31 33 24 30 39

GFSNE_925_spd_273.txt.gz
Wind_Speed
9 8 6 6 6 6 6 6 6 4 5 14 11 15 18 17 16 20 19 24 24 22 21 20 20 18 19 20 23 28 38 45 38 40 42 43 41 40
11 10 11 9 8 8 8 8 6 5 4 11 11 17 18 15 13 15 16 19 21 20 17 16 17 17 17 17 20 22 27 33 36 39 46 45 43 42
13 11 9 9 9 9 9 9 8 8 6 14 16 16 17 20 20 18 14 14 15 18 19 17 17 17 18 19 21 22 24 30 35 41 48 48 48 44
12 9 10 9 10 11 10 11 10 7 7 11 15 15 16 17 18 17 17 14 14 14 16 13 13 17 20 21 23 23 26 28 32 37 40 48 52 47
10 8 10 12 13 13 12 12 12 11 7 9 11 13 15 16 18 15 16 17 16 19 15 15 14 14 16 18 19 18 20 24 26 29 36 43 55 48
7 9 10 13 14 14 12 13 13 14 12 11 12 13 14 14 14 18 21 18 20 17 15 18 15 14 16 17 19 18 18 20 22 25 33 40 51 53
8 10 10 10 10 12 12 14 13 13 13 12 13 13 12 15 16 16 16 21 20 9 14 17 17 15 13 14 14 17 20 20 20 21 24 34 44 55
10 11 11 12 14 12 13 14 14 14 15 13 12 13 16 16 15 17 18 17 7 6 24 23 15 14 12 13 16 17 19 19 20 21 24 26 33 43
12 13 13 14 15 17 18 17 15 15 16 17 17 15 18 17 18 18 16 15 15 20 19 18 16 15 9 14 16 16 14 15 16 18 20 24 27 31
12 15 15 16 16 21 22 21 19 17 17 17 17 19 17 19 19 20 20 19 18 17 12 6 11 16 13 11 11 13 13 12 10 9 10 12 17 29
15 15 18 18 21 22 24 23 23 22 20 20 22 24 24 23 24 20 18 16 9 9 11 5 6 10 10 10 6 4 5 7 5 4 6 9 14 20
17 17 17 20 29 30 26 24 25 26 25 24 24 22 23 23 24 21 19 17 12 6 5 4 7 5 4 4 5 7 7 5 3 1 1 4 7 9
19 20 22 26 27 25 24 22 25 28 27 26 24 21 21 25 23 22 19 20 16 14 14 11 5 5 5 4 6 7 6 6 6 6 7 9 10 12
18 21 22 24 24 25 22 26 26 26 23 22 22 20 19 19 22 22 22 22 23 25 24 21 8 9 5 3 4 4 5 6 7 7 5 7 11 14
19 19 19 20 21 21 25 25 24 21 21 21 21 23 23 21 21 23 23 22 22 23 21 17 17 16 12 6 4 4 5 4 10 14 12 9 10 12
22 20 20 18 19 20 22 23 25 23 23 22 23 26 26 22 19 20 20 21 19 19 20 19 16 13 12 14 11 10 9 5 6 11 16 18 19 20
18 19 21 23 24 25 25 25 25 25 24 24 24 24 23 21 21 20 19 18 14 11 10 14 14 13 14 13 9 10 10 13 15 15 16 18 19 21
19 21 22 23 24 25 26 29 27 27 26 27 26 26 24 22 18 17 18 17 14 14 14 13 12 8 7 9 13 8 9 12 14 14 14 13 16 13
23 23 23 23 24 25 24 25 28 28 29 26 27 26 26 19 17 16 15 14 14 15 16 14 12 10 6 6 3 8 8 10 14 13 11 11 13 10
20 21 22 23 24 24 24 26 28 29 27 28 27 27 26 24 20 15 14 13 12 12 12 12 13 11 8 4 1 3 7 11 11 11 7 8 9 10
22 22 23 23 24 25 25 27 27 27 28 27 27 26 25 23 22 19 15 14 13 11 9 9 10 10 9 6 3 3 3 6 7 8 6 6 6 4
23 23 24 24 25 25 26 27 27 27 27 27 27 26 26 24 22 22 19 13 10 9 8 6 6 7 7 6 2 3 1 4 10 3 4 8 6 2
24 25 25 25 24 25 26 26 27 27 27 28 28 28 28 27 26 23 23 14 9 6 6 4 5 6 4 2 4 5 5 6 9 17 22 23 24 25

GFSNE_925_spd_276.txt.gz
Wind_Speed
8 6 6 6 3 3 2 4 4 4 6 8 12 10 16 18 19 20 17 17 20 19 17 15 14 14 14 16 16 16 10 37 41 37 37 40 44 43
8 7 8 6 4 4 5 5 4 3 4 9 13 15 18 20 19 20 17 20 16 15 14 14 12 11 11 13 13 13 15 18 24 39 41 41 43 43
10 10 11 10 7 7 6 6 5 4 4 15 12 13 17 18 19 19 17 17 16 19 17 15 15 12 11 10 11 14 14 17 21 28 44 40 40 45
13 14 16 12 9 7 6 7 6 5 6 11 12 12 14 16 17 19 17 16 17 17 21 15 15 14 13 12 14 15 16 18 21 23 26 37 43 47
14 15 13 11 10 10 9 9 8 8 9 13 15 11 12 14 18 16 17 18 16 17 18 15 16 13 12 14 14 15 13 16 20 23 25 30 34 40
13 11 11 10 9 11 9 10 11 11 11 11 15 14 12 14 15 17 19 17 20 18 14 14 17 16 12 14 13 11 12 12 15 17 22 25 29 33
11 11 10 9 11 9 10 11 13 14 13 12 12 14 15 14 14 15 18 20 20 12 12 17 17 15 11 11 8 12 14 16 17 19 21 21 25 29
10 8 5 8 10 12 13 15 13 13 13 14 15 14 17 16 17 17 19 17 7 8 19 21 16 15 14 10 15 15 15 16 17 19 22 24 25 28
8 9 9 10 12 15 18 18 15 14 13 15 18 19 19 18 16 19 18 20 20 22 23 22 18 17 12 11 18 17 17 14 14 15 16 19 23 26
12 11 12 12 16 20 20 20 19 18 16 17 19 21 21 20 22 23 24 26 25 25 20 15 17 17 14 13 13 12 13 12 12 10 9 10 14 19
10 12 14 15 21 23 21 20 21 21 19 19 22 24 26 27 27 24 22 20 15 19 18 18 14 13 12 13 9 10 8 7 7 8 8 8 5 3
14 15 14 19 22 22 21 21 21 22 27 29 28 26 24 24 24 23 23 21 18 12 12 12 11 9 4 5 5 8 9 10 10 8 4 2 4 4
18 18 19 23 24 22 21 18 22 26 25 24 24 24 24 25 23 23 23 22 21 20 17 18 12 9 8 5 7 10 8 8 8 9 9 8 7 6
18 19 21 26 24 23 21 24 23 23 21 21 22 22 23 24 24 22 23 23 24 26 24 22 11 11 10 5 5 6 7 6 7 7 5 7 9 11
18 17 20 21 20 19 20 21 21 20 21 22 21 22 23 27 27 28 24 23 24 26 27 28 26 24 18 11 6 5 3 4 6 10 13 13 14 11
18 18 19 19 18 18 20 20 20 21 22 21 23 25 26 26 26 23 23 23 22 22 24 25 25 24 17 19 15 13 11 5 5 7 11 15 14 15
16 16 17 20 21 22 22 21 21 21 22 23 24 25 25 24 26 25 22 23 18 17 18 16 18 24 25 19 11 15 13 13 12 14 15 17 17 18
15 19 21 23 23 25 25 26 24 24 24 26 24 25 24 25 25 27 22 19 18 18 16 16 15 11 10 15 22 15 12 13 11 12 14 16 18 19
21 22 22 23 24 24 25 25 26 26 27 25 25 26 25 26 26 24 23 19 18 17 17 15 14 11 6 8 5 17 11 10 10 14 17 18 16 15
21 22 22 23 24 24 24 25 26 27 26 27 27 26 26 25 25 23 23 21 17 15 13 14 15 15 9 6 1 6 11 7 10 14 15 16 19 19
22 22 22 23 23 25 25 26 27 27 28 27 26 26 26 25 26 25 24 24 24 17 14 12 16 16 13 6 3 6 7 7 9 12 11 11 13 13
23 23 24 24 25 26 26 27 28 27 27 27 28 27 27 26 25 25 25 23 22 18 14 10 5 7 8 8 6 4 4 2 6 7 6 13 8 4
25 26 26 25 25 26 26 27 28 28 27 29 29 30 29 29 27 26 26 25 24 13 9 4 4 6 8 6 3 5 3 2 1 3 5 6 6 4

GFSNE_925_spd_279.txt.gz
Wind_Speed
12 14 8 10 6 6 4 4 2 3 6 10 10 4 9 14 16 15 15 13 20 17 16 15 13 13 14 14 13 15 17 17 18 19 23 29 32 35
11 14 11 8 8 8 6 3 1 3 5 7 12 16 14 15 14 15 14 15 13 17 15 17 15 14 15 15 15 14 13 12 12 20 29 32 34 40
17 17 13 10 10 8 4 4 2 3 7 13 12 12 16 16 15 13 15 12 11 16 16 18 14 13 13 13 14 14 14 14 14 16 18 29 37 37
17 19 15 12 13 8 6 4 2 5 8 12 14 14 15 15 15 15 14 14 14 15 19 17 13 15 13 11 13 14 15 16 16 18 18 18 26 37
18 21 17 14 11 11 9 8 7 8 10 13 16 14 16 15 18 16 16 17 17 18 15 15 10 15 14 13 13 13 13 14 16 18 20 21 22 26
17 19 18 16 12 10 8 8 10 12 12 13 15 15 15 16 15 17 18 17 21 22 16 9 13 14 15 9 11 11 11 11 15 16 17 20 24 27
15 15 17 16 14 14 14 13 14 14 15 14 16 15 16 17 15 16 17 20 24 23 14 11 15 14 10 8 9 11 17 15 16 18 20 20 21 24
16 18 12 10 11 12 18 17 14 15 16 15 15 16 19 18 17 16 18 18 10 11 17 20 19 17 13 10 15 19 23 17 15 15 17 22 24 26
14 13 11 13 19 20 18 18 16 15 16 16 18 18 20 20 20 18 19 21 22 24 26 20 21 21 18 8 15 18 18 14 13 12 13 16 19 23
14 15 15 15 20 22 21 18 17 17 16 17 19 22 21 23 24 27 28 30 28 25 23 17 18 21 18 20 18 17 16 9 8 10 8 10 16 18
14 13 12 14 19 20 19 19 18 16 19 25 27 29 30 29 31 30 25 24 17 20 18 19 16 24 23 19 15 15 13 12 9 7 6 6 7 8
14 12 14 20 23 22 21 20 20 23 27 27 26 24 23 24 23 21 26 23 21 17 16 11 14 14 5 8 8 7 7 11 11 11 9 6 4 4
15 16 17 25 23 21 19 16 20 23 22 22 23 24 24 23 23 22 23 25 23 22 19 19 22 22 18 15 15 19 17 14 9 8 8 9 8 6
16 16 19 23 22 20 17 20 20 20 18 19 21 20 21 23 27 29 31 31 29 29 25 21 15 15 17 14 9 11 15 13 11 10 8 5 6 7
15 17 18 19 19 19 20 19 19 19 19 20 20 21 24 26 27 27 30 27 30 27 24 23 26 27 25 22 11 14 17 12 11 12 10 9 9 14
18 18 18 20 20 19 19 19 19 19 21 21 23 26 27 26 26 26 27 29 26 24 24 26 28 30 26 24 22 19 19 10 8 8 9 10 13 13
22 18 19 20 22 22 22 22 23 22 23 24 25 25 26 27 27 27 27 28 25 22 23 23 22 25 28 25 17 20 18 16 17 17 14 13 17 16
18 19 21 23 23 25 26 26 24 24 24 26 24 25 25 26 27 28 26 25 23 24 20 23 19 14 16 19 27 21 17 16 15 12 12 12 15 16
21 22 22 24 26 25 25 25 26 26 28 25 26 26 26 27 27 27 26 25 24 23 24 23 18 12 7 8 8 17 19 16 13 12 14 16 16 14
24 24 23 23 24 24 25 26 28 28 27 28 26 26 26 27 27 26 25 25 25 25 25 23 15 13 9 9 4 4 22 7 6 9 12 16 19 17
25 24 24 25 26 26 27 27 27 27 29 27 27 27 28 28 28 27 27 28 28 24 20 20 18 17 19 14 5 5 9 13 8 8 11 12 10 11
26 27 27 27 26 27 27 27 29 28 28 28 29 29 29 28 28 29 28 27 27 26 26 27 20 7 7 6 5 5 8 7 5 6 6 11 6 3
28 28 28 28 27 27 28 29 29 29 29 30 31 32 32 31 30 29 29 28 27 27 25 12 5 6 8 8 7 2 4 3 4 5 4 5 4 6

GFSNE_925_spd_285.txt.gz
Wind_Speed
21 9 20 24 21 19 16 17 7 3 3 8 7 11 13 14 11 8 7 5 5 5 2 5 9 14 17 17 17 16 17 19 20 19 19 22 22 24
34 38 31 27 20 22 22 18 13 9 5 6 11 12 16 14 13 10 9 6 9 6 7 12 13 15 16 15 13 14 16 17 19 17 18 18 19 18
34 39 32 42 31 23 20 25 23 17 7 7 12 14 14 13 13 11 10 6 5 7 8 9 10 14 13 15 15 14 13 15 19 18 18 16 19 19
35 40 37 35 34 31 23 27 26 32 14 5 9 14 15 14 13 10 10 10 11 10 11 12 13 11 10 15 14 15 14 15 18 18 17 18 18 19
39 40 39 40 33 27 27 26 31 25 20 8 5 10 11 17 15 15 15 16 13 15 14 11 8 7 11 14 13 15 13 16 18 17 20 20 19 19
35 37 36 34 28 27 28 29 25 20 16 12 8 7 9 13 11 13 13 15 20 19 13 12 16 15 15 18 16 15 15 18 21 22 23 22 22 20
30 32 31 27 25 25 27 29 25 20 18 15 13 10 15 14 16 17 15 16 19 12 14 19 27 27 24 23 19 18 22 20 19 22 25 24 24 24
27 28 31 34 33 27 24 21 26 24 20 17 11 9 11 14 18 18 17 16 5 9 25 23 23 25 26 24 21 17 18 21 22 24 26 26 22 23
29 27 26 27 30 27 24 24 22 23 23 19 16 16 17 24 23 19 18 15 15 25 25 21 25 23 25 27 25 26 27 27 26 25 26 24 20 20
31 30 28 29 30 27 24 25 24 24 22 21 20 20 19 21 20 20 19 20 21 21 20 13 23 27 30 27 20 22 21 26 23 22 22 20 20 18
26 28 28 26 24 23 21 19 20 24 23 20 19 17 18 18 19 21 19 17 12 14 23 13 13 25 27 26 28 22 16 15 20 19 21 20 20 20
23 23 25 26 22 23 24 20 21 24 26 27 26 23 22 22 19 18 19 14 14 8 10 16 20 16 9 21 13 15 27 27 29 27 23 25 24 23
22 25 24 25 23 23 23 24 23 21 24 24 24 22 24 25 26 25 23 19 17 17 24 22 19 22 16 18 21 25 29 30 29 26 26 27 28 25
23 24 22 22 22 23 23 22 22 25 25 22 20 22 24 26 28 27 25 23 20 21 26 24 21 23 22 20 16 17 24 31 31 31 29 25 24 27
24 21 22 22 22 25 22 22 24 23 23 19 21 22 25 27 30 30 28 25 27 24 19 19 22 26 24 22 18 24 24 26 30 33 32 29 29 29
25 25 24 23 22 22 23 23 23 23 22 20 22 22 22 22 22 22 25 27 27 28 21 19 21 22 25 24 23 24 24 18 24 26 27 25 25 30
22 22 25 27 26 26 25 24 23 24 22 24 23 25 25 24 24 23 23 24 22 25 29 28 24 24 26 27 25 25 26 24 27 27 24 26 25 28
26 25 25 24 24 24 25 25 24 24 24 24 23 22 23 23 25 25 21 21 22 23 25 27 28 27 26 21 21 27 25 25 26 26 26 22 23 25
26 24 23 24 24 24 24 23 25 25 27 23 23 23 24 23 24 23 23 21 21 22 25 24 22 18 10 11 20 18 25 22 22 21 22 21 17 21
26 24 23 24 24 24 24 25 26 25 24 24 24 24 24 24 25 23 23 22 22 25 28 26 21 19 10 13 13 31 27 30 18 17 18 18 21 16
25 24 24 24 25 25 26 26 27 27 28 28 27 26 26 25 27 25 26 26 25 23 23 26 29 31 32 26 11 15 20 22 25 21 13 8 5 7
28 29 29 28 28 29 30 30 31 30 30 29 28 28 28 27 27 27 26 26 26 25 27 32 35 30 25 21 11 15 16 20 17 19 16 14 6 3
29 28 29 29 29 29 31 32 30 29 29 30 30 30 29 29 28 27 27 27 26 28 27 29 29 26 25 18 18 14 14 10 6 11 16 16 17 16

GFSNE_925_spd_291.txt.gz
Wind_Speed
30 31 27 25 23 20 10 7 5 12 3 6 6 19 30 33 29 27 25 20 19 17 15 13 14 12 6 5 4 1 5 9 8 8 10 12 13 15
32 33 32 31 28 25 20 14 7 9 6 8 10 20 25 32 28 31 27 23 20 17 10 8 7 8 5 2 2 1 3 3 4 7 10 12 12 14
34 32 33 34 31 27 26 27 26 27 11 15 25 19 26 28 27 24 22 20 18 13 8 5 7 6 3 1 3 3 3 1 1 2 5 7 9 12
33 32 36 35 30 33 30 31 31 30 24 14 20 23 24 26 23 20 15 17 13 12 9 2 3 3 2 1 0 1 4 3 3 4 6 7 8 10
33 34 33 30 28 30 31 31 28 32 31 18 13 22 27 25 25 18 14 14 10 9 6 8 7 1 2 3 3 4 5 5 7 8 9 8 9 12
32 33 33 32 32 28 28 26 26 26 25 21 20 20 19 18 15 18 14 14 8 6 7 9 8 5 5 5 7 6 7 8 10 10 9 9 11 13
31 31 32 28 29 31 28 27 23 21 19 14 14 13 16 14 15 13 11 15 9 9 13 12 11 8 6 6 5 6 8 9 11 11 12 12 13 13
29 27 28 29 26 28 27 29 30 21 19 15 15 14 15 16 16 13 11 7 3 8 17 16 10 11 10 7 7 9 9 7 11 15 16 16 15 13
28 26 27 28 29 25 22 25 26 25 25 20 18 17 14 13 11 10 10 7 6 14 12 6 9 12 12 17 13 10 9 7 9 14 13 15 16 14
28 27 26 27 28 25 21 22 22 23 25 21 19 16 15 14 12 8 8 9 8 7 11 3 10 15 20 12 6 5 6 6 10 13 11 10 12 14
25 28 29 28 26 24 23 19 20 23 19 17 16 15 13 14 13 11 13 13 4 4 5 11 6 17 16 9 6 2 11 12 15 17 16 14 13 16
22 24 27 26 26 26 24 22 21 21 19 19 17 15 15 14 13 13 10 8 7 3 2 14 8 9 8 9 6 17 19 17 18 17 18 19 19 20
22 24 25 23 23 23 23 23 20 17 17 17 16 16 15 14 15 14 9 7 9 9 11 13 9 12 5 9 21 21 20 20 21 21 23 23 22 22
21 22 22 21 21 22 24 21 21 19 19 20 19 19 20 21 21 18 14 11 11 16 18 12 10 13 13 15 13 26 23 29 25 25 25 26 24 22
21 20 19 20 20 24 22 23 26 25 22 21 19 19 20 20 18 16 16 16 16 13 7 9 14 17 16 16 17 19 21 24 25 26 22 19 23 23
24 24 25 25 25 25 26 27 24 24 21 19 19 21 21 20 19 20 20 19 18 13 17 11 12 14 18 18 19 27 22 13 28 31 25 24 23 23
23 25 27 26 25 25 25 25 24 25 24 23 21 22 22 21 19 20 18 19 13 15 21 22 20 18 21 24 20 24 26 24 27 29 23 24 24 21
21 21 22 23 23 24 24 24 22 24 24 24 23 22 22 23 24 24 20 18 20 20 20 19 20 19 13 11 18 27 23 26 28 25 24 23 25 25
24 24 24 25 25 25 25 24 25 25 26 23 22 23 22 21 21 20 20 18 19 20 21 21 18 12 6 7 12 19 26 24 22 21 25 26 28 28
24 23 23 23 23 24 24 25 25 26 24 24 23 22 22 21 21 19 19 19 19 22 24 20 15 15 12 7 9 31 27 30 27 25 24 26 29 29
26 25 24 24 24 24 24 24 25 24 25 25 23 23 23 21 21 21 21 21 21 19 20 23 21 21 26 23 11 18 30 23 23 27 22 19 19 18
28 27 27 26 26 27 28 28 27 27 26 25 25 24 25 23 23 24 22 22 21 21 24 30 31 24 18 15 16 21 24 29 24 23 25 26 18 4
33 31 31 30 29 30 31 31 30 31 29 29 29 29 28 27 26 25 25 25 24 25 23 28 27 21 22 20 23 25 27 28 22 20 26 21 22 23